Home > Weather > U.S.A. > Washington DC > Past weeks

Flag for U.S.A. Weather past 2 weeks in Washington DC, District of Columbia, U.S.A.

48 °F

Light rain. Low clouds.

Feels Like: 45 °F
Forecast: 43 / 50 °F
Wind: 6 mph from Southwest

Location: Reagan National Airport

Current Time: Dec 1, 2015 at 1:55:44 PM

Latest Report: Dec 1, 2015 at 12:52 PM

Visibility: 7 mi

Pressure: 30.10 "Hg

Humidity: 93%

Dew point: 46 °F

Location of Washington DCLocation

Historic Weather in Washington DC — Graph


Washington DC temperature yesterday

Maximum temperature yesterday: 45 °F (at 9:03 PM)
Minimum temperature yesterday: 39 °F (at 9:00 AM)
Average temperature yesterday: 42 °F

Past Weeks' High & Low Weather Summary

High69 °F (Nov 16, 2:52 PM)100% (Nov 19, 3:59 PM)30.80 "Hg (Nov 19, 3:59 PM)
Low32 °F (Nov 23, 6:52 AM)21% (Nov 20, 2:52 PM)29.91 "Hg (Nov 21, 11:52 PM)
Average50 °F69%30.30 "Hg
* Reported Nov 16 11:52 AM — Dec 1 11:57 AM, Washington DC, Weather by CustomWeather, © 2015

Note: Actual official high and low records may vary slightly from our data, if they occured in-between our weather recording intervals... More about our weather records


Washington DC weather history for previous 24 hours

Time TempWeatherWind HumidityBarometerVisibility
11:57 AM
Tue, Dec 1
47 °FRain. Fog.3 mph93%30.12 "Hg2 mi
10:52 AM47 °FRain. Fog.3 mph93%30.14 "Hg3 mi
9:52 AM47 °FRain. Fog.3 mph93%30.15 "Hg3 mi
8:52 AM47 °FLight rain. Fog.No wind93%30.14 "Hg6 mi
7:52 AM46 °FLight rain. Fog.3 mph96%30.14 "Hg5 mi
6:59 AM46 °FRain. Fog.No wind96%30.15 "Hg4 mi
5:52 AM46 °FDrizzle. Fog.3 mph96%30.15 "Hg2 mi
4:52 AM44 °FLight rain. Fog.6 mph100%30.15 "Hg3 mi
3:52 AM45 °FLight rain. Fog.8 mph97%30.16 "Hg2 mi
2:52 AM46 °FLight rain. Fog.5 mph96%30.18 "Hg2 mi
1:57 AM45 °FLight rain. Fog.6 mph97%30.19 "Hg2 mi
1:00 AM45 °FLight rain. Fog.7 mph97%30.19 "Hg2 mi
11:52 PM
Mon, Nov 30
45 °FLight rain. Fog.6 mph97%30.21 "Hg3 mi
11:04 PM45 °FDrizzle. Fog.7 mph93%30.23 "Hg3 mi
9:52 PM44 °FLight rain. Fog.7 mph96%30.24 "Hg3 mi
9:03 PM45 °FLight rain. Fog.7 mph93%30.26 "Hg2 mi
7:52 PM44 °FDrizzle. Fog.8 mph93%30.27 "Hg5 mi
6:52 PM44 °FLow clouds.10 mph93%30.28 "Hg9 mi
5:52 PM43 °FLight rain. Fog.8 mph93%30.29 "Hg6 mi
4:52 PM42 °FLight rain. Fog.10 mph92%30.30 "Hg5 mi
3:52 PM41 °FLight rain. Fog.9 mph93%30.30 "Hg4 mi
3:04 PM41 °FLight rain. Fog.10 mph93%30.32 "Hg2 mi
2:00 PM41 °FLight rain. Fog.10 mph89%30.32 "Hg2 mi
Weather by CustomWeather, © 2015

See weather overviewHow to use our weather pages